User: anonymous   Login
Location: ???? ?????????
(31.1304°N, 31.7111°E)
Time: 18:50:17
(UTC+00:00)
Language:

deb Agena D - Orbit

View from above orbital plane
View from above orbital plane
View from above satellite
View from above satellite

Ground track
Ground track

The orbit data is extracted from the following two-line orbital elements,

1 04948U 70025GJ  21173.40374056  .00000300  00000-0  48562-3 0  9993
2 04948  99.5454  82.6079 0212489  15.8371  45.3524 13.47671690492772
Epoch (UTC): 22 June 2021 09:41:23
Eccentricity: 0.0212489
inclination: 99.5454°
perigee height: 922 km
apogee height: 1239 km
right ascension of ascending node: 82.6079°
argument of perigee: 15.8371°
revolutions per day: 13.47671690
mean anomaly at epoch: 45.3524°
orbit number at epoch: 49277

The dashed part of the orbit path shows where the satellite is in the earth's shadow,  

DLR